| time (UTC) | temp F | wind direction | speed knots | gust knots | rain 1hr in | rain 24hr in | rain mn in | humidity % | barometer mb |
| 20260906163549 | 65 | 304 | 4.3 | 10.4 | 0.00 | 0.00 | 0.00 | 60 | 1015.6 |
| 20260906163052 | 66 | 328 | 5.2 | 10.4 | 0.00 | 0.00 | 0.00 | 59 | 1015.6 |
| 20260906162548 | 66 | 318 | 4.3 | 10.4 | 0.00 | 0.00 | 0.00 | 61 | 1015.6 |
| 20260906162047 | 66 | 321 | 1.7 | 7.8 | 0.00 | 0.00 | 0.00 | 59 | 1015.7 |
| 20260906161549 | 65 | 301 | 3.5 | 8.7 | 0.00 | 0.00 | 0.00 | 65 | 1015.7 |
| 20260906161047 | 64 | 314 | 4.3 | 10.4 | 0.00 | 0.00 | 0.00 | 61 | 1015.8 |
| 20260906160546 | 65 | 327 | 7.8 | 10.4 | 0.00 | 0.00 | 0.00 | 61 | 1015.9 |
| 20260906160045 | 65 | 319 | 3.5 | 9.6 | 0.00 | 0.00 | 0.00 | 59 | 1015.8 |
| 20260906155545 | 66 | 301 | 4.3 | 9.6 | 0.00 | 0.00 | 0.00 | 58 | 1015.9 |
| 20260906155044 | 66 | 9 | 4.3 | 8.7 | 0.00 | 0.00 | 0.00 | 60 | 1015.8 |
| 20260906154544 | 65 | 292 | 1.7 | 7.8 | 0.00 | 0.00 | 0.00 | 62 | 1015.8 |
| 20260906154044 | 65 | 278 | 0.9 | 6.1 | 0.00 | 0.00 | 0.00 | 63 | 1015.9 |
| 20260906153547 | 64 | 302 | 1.7 | 12.2 | 0.00 | 0.00 | 0.00 | 62 | 1016.0 |
| 20260906153052 | 64 | 333 | 3.5 | 12.2 | 0.00 | 0.00 | 0.00 | 61 | 1015.9 |
| 20260906152544 | 65 | 325 | 4.3 | 11.3 | 0.00 | 0.00 | 0.00 | 61 | 1015.9 |
| 20260906152042 | 65 | 315 | 6.1 | 10.4 | 0.00 | 0.00 | 0.00 | 59 | 1015.9 |
| 20260906151542 | 65 | 288 | 3.5 | 8.7 | 0.00 | 0.00 | 0.00 | 61 | 1015.8 |
| 20260906151040 | 65 | 344 | 3.5 | 8.7 | 0.00 | 0.00 | 0.00 | 62 | 1015.8 |
| 20260906150540 | 64 | 300 | 2.6 | 9.6 | 0.00 | 0.00 | 0.00 | 62 | 1015.6 |
| 20260906150040 | 64 | 44 | 4.3 | 9.6 | 0.00 | 0.00 | 0.00 | 61 | 1015.8 |
| 20260906145539 | 65 | 285 | 5.2 | 7.8 | 0.00 | 0.00 | 0.00 | 63 | 1015.7 |
| 20260906145041 | 65 | 53 | 2.6 | 7.8 | 0.00 | 0.00 | 0.00 | 61 | 1015.7 |
| 20260906144540 | 64 | 355 | 2.6 | 7.8 | 0.00 | 0.00 | 0.00 | 63 | 1015.7 |
| 20260906144038 | 64 | 28 | 3.5 | 10.4 | 0.00 | 0.00 | 0.00 | 62 | 1015.7 |
| 20260906143538 | 65 | 13 | 4.3 | 10.4 | 0.00 | 0.00 | 0.00 | 63 | 1015.8 |
| 20260906143037 | 64 | 331 | 2.6 | 11.3 | 0.00 | 0.00 | 0.00 | 65 | 1015.7 |
| 20260906142536 | 63 | 71 | 1.7 | 11.3 | 0.00 | 0.00 | 0.00 | 62 | 1015.6 |
| 20260906142038 | 63 | 311 | 3.5 | 12.2 | 0.00 | 0.00 | 0.00 | 63 | 1015.6 |
| 20260906141538 | 63 | 298 | 6.1 | 12.2 | 0.00 | 0.00 | 0.00 | 63 | 1015.6 |
| 20260906141034 | 63 | 288 | 5.2 | 11.3 | 0.00 | 0.00 | 0.00 | 66 | 1015.5 |
| 20260906140534 | 63 | 155 | 3.5 | 8.7 | 0.00 | 0.00 | 0.00 | 65 | 1015.5 |
| 20260906140037 | 63 | 13 | 3.5 | 8.7 | 0.00 | 0.00 | 0.00 | 63 | 1015.4 |
| 20260906135532 | 63 | 222 | 2.6 | 8.7 | 0.00 | 0.00 | 0.00 | 66 | 1015.4 |
| 20260906135030 | 63 | 38 | 2.6 | 8.7 | 0.00 | 0.00 | 0.00 | 66 | 1015.3 |
| 20260906134529 | 62 | 355 | 3.5 | 9.6 | 0.00 | 0.00 | 0.00 | 74 | 1015.4 |
| 20260906134027 | 62 | 323 | 2.6 | 9.6 | 0.00 | 0.00 | 0.00 | 75 | 1015.4 |
| 20260906133527 | 62 | 327 | 2.6 | 7.8 | 0.00 | 0.00 | 0.00 | 75 | 1015.4 |
| 20260906133036 | 61 | 297 | 3.5 | 7.8 | 0.00 | 0.00 | 0.00 | 76 | 1015.4 |
| 20260906132524 | 60 | 355 | 4.3 | 7.8 | 0.00 | 0.00 | 0.00 | 77 | 1015.3 |
| 20260906132021 | 60 | 5 | 4.3 | 7.8 | 0.00 | 0.00 | 0.00 | 82 | 1015.4 |
| 20260906131521 | 60 | 294 | 2.6 | 7.0 | 0.00 | 0.00 | 0.00 | 85 | 1015.3 |
| 20260906131022 | 60 | 313 | 3.5 | 9.6 | 0.00 | 0.00 | 0.00 | 86 | 1015.4 |
| 20260906130519 | 59 | 318 | 5.2 | 10.4 | 0.00 | 0.00 | 0.00 | 89 | 1015.4 |
| 20260906130019 | 59 | 28 | 3.5 | 7.8 | 0.00 | 0.00 | 0.00 | 91 | 1015.3 |
| 20260906125516 | 59 | 355 | 1.7 | 7.8 | 0.00 | 0.00 | 0.00 | 93 | 1015.4 |
| 20260906125016 | 59 | 323 | 3.5 | 7.8 | 0.00 | 0.00 | 0.00 | 93 | 1015.3 |
| 20260906124519 | 59 | 290 | 1.7 | 7.8 | 0.00 | 0.00 | 0.00 | 94 | 1015.3 |
| 20260906124013 | 59 | 304 | 2.6 | 7.8 | 0.00 | 0.00 | 0.00 | 94 | 1015.3 |
| 20260906123512 | 58 | 317 | 3.5 | 7.8 | 0.00 | 0.00 | 0.00 | 95 | 1015.3 |
| 20260906123027 | 58 | 313 | 2.6 | 5.2 | 0.00 | 0.00 | 0.00 | 95 | 1015.2 |
| 20260906122509 | 58 | 296 | 2.6 | 4.3 | 0.00 | 0.00 | 0.00 | 95 | 1015.2 |
| 20260906122006 | 58 | 321 | 2.6 | 5.2 | 0.00 | 0.00 | 0.00 | 95 | 1015.0 |
| 20260906121508 | 58 | 327 | 3.5 | 5.2 | 0.00 | 0.00 | 0.00 | 95 | 1014.9 |
| 20260906121005 | 58 | 309 | 2.6 | 3.5 | 0.00 | 0.00 | 0.00 | 95 | 1014.9 |
| 20260906120503 | 57 | 329 | 0.9 | 3.5 | 0.00 | 0.00 | 0.00 | 95 | 1014.7 |
| 20260906120002 | 57 | 313 | 0.9 | 2.6 | 0.00 | 0.00 | 0.00 | 95 | 1014.8 |
| 20260906115502 | 57 | 309 | 1.7 | 2.6 | 0.00 | 0.00 | 0.00 | 95 | 1014.8 |
| 20260906115001 | 57 | 295 | 0.0 | 2.6 | 0.00 | 0.00 | 0.00 | 95 | 1014.7 |
| 20260906114501 | 57 | 295 | 0.9 | 2.6 | 0.00 | 0.00 | 0.00 | 95 | 1014.7 |
| 20260906114001 | 57 | 315 | 0.9 | 3.5 | 0.00 | 0.00 | 0.00 | 95 | 1014.7 |
| 20260906113501 | 57 | 360 | 1.7 | 3.5 | 0.00 | 0.00 | 0.00 | 95 | 1014.6 |
| 20260906113002 | 57 | 319 | 1.7 | 3.5 | 0.00 | 0.00 | 0.00 | 95 | 1014.6 |
| 20260906112501 | 57 | 321 | 1.7 | 3.5 | 0.00 | 0.00 | 0.00 | 95 | 1014.7 |
| 20260906112100 | 56 | 336 | 1.7 | 3.5 | 0.00 | 0.00 | 0.00 | 95 | 1014.6 |
| 20260906111625 | 56 | 360 | 0.0 | 3.5 | 0.00 | 0.00 | 0.00 | 95 | 1014.6 |
| 20260906111101 | 56 | 308 | 1.7 | 3.5 | 0.00 | 0.00 | 0.00 | 95 | 1014.5 |
| 20260906110558 | 57 | 307 | 0.0 | 0.0 | 0.00 | 0.00 | 0.00 | 95 | 1014.4 |
| 20260906110058 | 57 | 307 | 0.0 | 2.6 | 0.00 | 0.00 | 0.00 | 95 | 1014.3 |
| 20260906105557 | 57 | 307 | 0.0 | 4.3 | 0.00 | 0.00 | 0.00 | 95 | 1014.3 |
| 20260906105100 | 57 | 307 | 0.9 | 4.3 | 0.00 | 0.00 | 0.00 | 95 | 1014.3 |
| 20260906104601 | 57 | 309 | 1.7 | 4.3 | 0.00 | 0.00 | 0.00 | 95 | 1014.1 |
| 20260906104055 | 57 | 317 | 1.7 | 3.5 | 0.00 | 0.00 | 0.00 | 95 | 1014.1 |
| 20260906103555 | 56 | 281 | 0.0 | 0.0 | 0.00 | 0.00 | 0.00 | 95 | 1014.0 |
| 20260906103055 | 56 | 282 | 0.0 | 1.7 | 0.00 | 0.00 | 0.00 | 95 | 1014.0 |
| 20260906102554 | 56 | 281 | 0.0 | 3.5 | 0.00 | 0.00 | 0.00 | 95 | 1014.0 |
| 20260906102053 | 56 | 296 | 0.0 | 3.5 | 0.00 | 0.00 | 0.00 | 95 | 1014.0 |
| 20260906101553 | 56 | 300 | 0.0 | 0.0 | 0.00 | 0.00 | 0.00 | 95 | 1013.9 |
| 20260906101056 | 56 | 278 | 0.0 | 0.0 | 0.00 | 0.00 | 0.00 | 94 | 1013.8 |
| 20260906100552 | 56 | 278 | 0.0 | 0.0 | 0.00 | 0.00 | 0.00 | 94 | 1013.7 |
| 20260906100051 | 56 | 243 | 0.0 | 0.0 | 0.00 | 0.00 | 0.00 | 94 | 1013.6 |
| 20260906095552 | 56 | 243 | 0.0 | 0.0 | 0.00 | 0.00 | 0.00 | 94 | 1013.5 |
| 20260906095049 | 56 | 243 | 0.0 | 0.0 | 0.00 | 0.00 | 0.00 | 94 | 1013.5 |
| 20260906094548 | 56 | 243 | 0.0 | 0.0 | 0.00 | 0.00 | 0.00 | 94 | 1013.3 |
| 20260906094049 | 56 | 243 | 0.0 | 0.0 | 0.00 | 0.00 | 0.00 | 94 | 1013.3 |
| 20260906093548 | 56 | 242 | 0.0 | 0.0 | 0.00 | 0.00 | 0.00 | 94 | 1013.2 |
| 20260906093056 | 56 | 242 | 0.0 | 0.0 | 0.00 | 0.00 | 0.00 | 94 | 1013.3 |
| 20260906092547 | 56 | 242 | 0.0 | 0.0 | 0.00 | 0.00 | 0.00 | 94 | 1013.2 |
| 20260906092046 | 56 | 242 | 0.0 | 0.0 | 0.00 | 0.00 | 0.00 | 94 | 1013.1 |
| 20260906091546 | 56 | 242 | 0.0 | 0.0 | 0.00 | 0.00 | 0.00 | 94 | 1013.1 |
| 20260906091046 | 56 | 263 | 0.0 | 0.0 | 0.00 | 0.00 | 0.00 | 94 | 1013.1 |
| 20260906090545 | 56 | 265 | 0.0 | 0.0 | 0.00 | 0.00 | 0.00 | 94 | 1013.1 |
| 20260906090046 | 56 | 360 | 0.0 | 0.0 | 0.00 | 0.00 | 0.00 | 94 | 1013.0 |
| 20260906085545 | 56 | 265 | 0.0 | 0.0 | 0.00 | 0.00 | 0.00 | 94 | 1013.0 |
| 20260906085045 | 56 | 265 | 0.0 | 0.0 | 0.00 | 0.00 | 0.00 | 94 | 1013.1 |
| 20260906084548 | 56 | 265 | 0.0 | 0.0 | 0.00 | 0.00 | 0.00 | 94 | 1013.1 |
| 20260906084045 | 56 | 265 | 0.0 | 0.0 | 0.00 | 0.00 | 0.00 | 94 | 1012.9 |
| 20260906083543 | 56 | 265 | 0.0 | 0.0 | 0.00 | 0.00 | 0.00 | 94 | 1012.8 |
| 20260906083043 | 56 | 267 | 0.0 | 0.0 | 0.00 | 0.00 | 0.00 | 94 | 1012.8 |
| 20260906082542 | 56 | 267 | 0.0 | 0.0 | 0.00 | 0.00 | 0.00 | 93 | 1012.8 |
| 20260906082041 | 56 | 267 | 0.0 | 0.0 | 0.00 | 0.00 | 0.00 | 94 | 1012.8 |
| 20260906081550 | 56 | 266 | 0.0 | 0.0 | 0.00 | 0.00 | 0.00 | 93 | 1012.7 |
| 20260906081040 | 56 | 267 | 0.0 | 0.0 | 0.00 | 0.00 | 0.00 | 93 | 1012.7 |
| 20260906080540 | 56 | 267 | 0.0 | 0.0 | 0.00 | 0.00 | 0.00 | 93 | 1012.6 |
| 20260906080040 | 56 | 266 | 0.0 | 0.0 | 0.00 | 0.00 | 0.00 | 93 | 1012.7 |
| 20260906075539 | 56 | 267 | 0.0 | 0.0 | 0.00 | 0.00 | 0.00 | 93 | 1012.7 |
| 20260906075039 | 57 | 267 | 0.0 | 0.0 | 0.00 | 0.00 | 0.00 | 93 | 1012.6 |
| 20260906074539 | 57 | 267 | 0.0 | 0.0 | 0.00 | 0.00 | 0.00 | 93 | 1012.7 |
| 20260906074039 | 57 | 267 | 0.0 | 0.0 | 0.00 | 0.00 | 0.00 | 93 | 1012.6 |
| 20260906073538 | 57 | 267 | 0.0 | 0.0 | 0.00 | 0.00 | 0.00 | 93 | 1012.6 |
| 20260906073050 | 57 | 267 | 0.0 | 0.0 | 0.00 | 0.00 | 0.00 | 93 | 1012.6 |
| 20260906072538 | 57 | 267 | 0.0 | 0.0 | 0.00 | 0.00 | 0.00 | 93 | 1012.5 |
| 20260906072037 | 57 | 267 | 0.0 | 0.0 | 0.00 | 0.00 | 0.00 | 93 | 1012.5 |
| 20260906071537 | 56 | 267 | 0.0 | 0.0 | 0.00 | 0.00 | 0.00 | 93 | 1012.5 |
| 20260906071037 | 56 | 267 | 0.0 | 0.0 | 0.00 | 0.00 | 0.00 | 93 | 1012.6 |
| 20260906070537 | 56 | 267 | 0.0 | 0.0 | 0.00 | 0.00 | 0.00 | 92 | 1012.5 |
| 20260906070040 | 56 | 267 | 0.0 | 0.0 | 0.00 | 0.00 | 0.00 | 92 | 1012.6 |
| 20260906065538 | 56 | 267 | 0.0 | 0.0 | 0.00 | 0.00 | 0.00 | 92 | 1012.5 |
| 20260906065035 | 57 | 267 | 0.0 | 0.0 | 0.00 | 0.00 | 0.00 | 92 | 1012.5 |
| 20260906064535 | 57 | 267 | 0.0 | 0.0 | 0.00 | 0.00 | 0.00 | 92 | 1012.5 |
| 20260906064035 | 57 | 267 | 0.0 | 0.0 | 0.00 | 0.00 | 0.00 | 92 | 1012.4 |
| 20260906063533 | 57 | 267 | 0.0 | 0.0 | 0.00 | 0.00 | 0.00 | 92 | 1012.3 |
| 20260906063033 | 57 | 267 | 0.0 | 0.0 | 0.00 | 0.00 | 0.00 | 92 | 1012.2 |
| 20260906062533 | 57 | 267 | 0.0 | 0.0 | 0.00 | 0.00 | 0.00 | 92 | 1012.2 |
| 20260906062032 | 57 | 267 | 0.0 | 0.0 | 0.00 | 0.00 | 0.00 | 91 | 1012.2 |
| 20260906061530 | 57 | 267 | 0.0 | 0.0 | 0.00 | 0.00 | 0.00 | 91 | 1012.2 |
| 20260906061030 | 57 | 267 | 0.0 | 0.0 | 0.00 | 0.00 | 0.00 | 91 | 1012.3 |
| 20260906060532 | 58 | 267 | 0.0 | 0.0 | 0.00 | 0.00 | 0.00 | 91 | 1012.3 |
| 20260906060028 | 58 | 267 | 0.0 | 0.0 | 0.00 | 0.00 | 0.00 | 91 | 1012.4 |
| 20260906055528 | 58 | 267 | 0.0 | 0.0 | 0.00 | 0.00 | 0.00 | 91 | 1012.4 |
| 20260906055028 | 58 | 267 | 0.0 | 0.0 | 0.00 | 0.00 | 0.00 | 91 | 1012.4 |
| 20260906054527 | 58 | 267 | 0.0 | 0.0 | 0.00 | 0.00 | 0.00 | 90 | 1012.5 |
| 20260906054027 | 58 | 267 | 0.0 | 0.0 | 0.00 | 0.00 | 0.00 | 90 | 1012.5 |
| 20260906053525 | 58 | 267 | 0.0 | 0.0 | 0.00 | 0.00 | 0.00 | 90 | 1012.5 |
| 20260906053034 | 59 | 267 | 0.0 | 0.0 | 0.00 | 0.00 | 0.00 | 90 | 1012.5 |
| 20260906052526 | 59 | 267 | 0.0 | 0.0 | 0.00 | 0.00 | 0.00 | 90 | 1012.5 |
| 20260906052025 | 59 | 267 | 0.0 | 0.0 | 0.00 | 0.00 | 0.00 | 90 | 1012.5 |
| 20260906051524 | 59 | 267 | 0.0 | 0.0 | 0.00 | 0.00 | 0.00 | 90 | 1012.6 |
| 20260906051027 | 59 | 267 | 0.0 | 0.0 | 0.00 | 0.00 | 0.00 | 90 | 1012.5 |
| 20260906050523 | 59 | 267 | 0.0 | 0.0 | 0.00 | 0.00 | 0.00 | 90 | 1012.5 |
| 20260906050023 | 59 | 267 | 0.0 | 0.0 | 0.00 | 0.00 | 0.00 | 90 | 1012.6 |
| 20260906045523 | 59 | 267 | 0.0 | 0.0 | 0.00 | 0.00 | 0.00 | 90 | 1012.6 |
| 20260906045024 | 59 | 267 | 0.0 | 0.0 | 0.00 | 0.00 | 0.00 | 90 | 1012.5 |
| 20260906044523 | 59 | 267 | 0.0 | 0.0 | 0.00 | 0.00 | 0.00 | 90 | 1012.5 |
| 20260906044022 | 59 | 267 | 0.0 | 0.0 | 0.00 | 0.00 | 0.00 | 90 | 1012.6 |
| 20260906043523 | 59 | 267 | 0.0 | 0.0 | 0.00 | 0.00 | 0.00 | 90 | 1012.6 |
| 20260906043038 | 59 | 267 | 0.0 | 0.0 | 0.00 | 0.00 | 0.00 | 90 | 1012.6 |
| 20260906042521 | 59 | 267 | 0.0 | 0.0 | 0.00 | 0.00 | 0.00 | 90 | 1012.6 |
| 20260906042020 | 59 | 267 | 0.0 | 0.0 | 0.00 | 0.00 | 0.00 | 90 | 1012.6 |
| 20260906041520 | 59 | 267 | 0.0 | 0.0 | 0.00 | 0.00 | 0.00 | 90 | 1012.6 |
| 20260906041020 | 59 | 267 | 0.0 | 0.0 | 0.00 | 0.00 | 0.00 | 90 | 1012.6 |
| 20260906040520 | 59 | 267 | 0.0 | 0.0 | 0.00 | 0.00 | 0.00 | 90 | 1012.5 |
| 20260906040019 | 59 | 267 | 0.0 | 0.0 | 0.00 | 0.00 | 0.00 | 90 | 1012.6 |
| 20260906035519 | 59 | 267 | 0.0 | 0.0 | 0.00 | 0.00 | 0.00 | 90 | 1012.6 |
| 20260906035019 | 59 | 267 | 0.0 | 0.0 | 0.00 | 0.00 | 0.00 | 90 | 1012.6 |
| 20260906034524 | 59 | 267 | 0.0 | 0.0 | 0.00 | 0.00 | 0.00 | 90 | 1012.6 |
| 20260906034017 | 59 | 267 | 0.0 | 0.0 | 0.00 | 0.00 | 0.00 | 90 | 1012.5 |
| 20260906033517 | 59 | 267 | 0.0 | 0.0 | 0.00 | 0.00 | 0.00 | 90 | 1012.5 |
| 20260906033017 | 59 | 267 | 0.0 | 0.0 | 0.00 | 0.00 | 0.00 | 90 | 1012.5 |
| 20260906032517 | 59 | 267 | 0.0 | 0.0 | 0.00 | 0.00 | 0.00 | 90 | 1012.5 |
| 20260906032017 | 59 | 267 | 0.0 | 0.0 | 0.00 | 0.00 | 0.00 | 90 | 1012.5 |
| 20260906031516 | 59 | 267 | 0.0 | 0.0 | 0.00 | 0.00 | 0.00 | 90 | 1012.5 |
| 20260906031016 | 59 | 267 | 0.0 | 0.0 | 0.00 | 0.00 | 0.00 | 90 | 1012.4 |
| 20260906030516 | 59 | 267 | 0.0 | 0.0 | 0.00 | 0.00 | 0.00 | 90 | 1012.3 |
| 20260906030016 | 59 | 267 | 0.0 | 0.0 | 0.00 | 0.00 | 0.00 | 90 | 1012.3 |
| 20260906025515 | 59 | 267 | 0.0 | 0.0 | 0.00 | 0.00 | 0.00 | 90 | 1012.3 |
| 20260906025017 | 59 | 267 | 0.0 | 0.0 | 0.00 | 0.00 | 0.00 | 90 | 1012.2 |
| 20260906024515 | 59 | 267 | 0.0 | 0.0 | 0.00 | 0.00 | 0.00 | 90 | 1012.3 |
| 20260906024016 | 59 | 360 | 0.0 | 0.0 | 0.00 | 0.00 | 0.00 | 90 | 1012.3 |
| 20260906023515 | 59 | 360 | 0.0 | 0.0 | 0.00 | 0.00 | 0.00 | 90 | 1012.3 |
| 20260906023016 | 59 | 241 | 0.0 | 0.0 | 0.00 | 0.00 | 0.00 | 89 | 1012.3 |
| 20260906022515 | 59 | 267 | 0.0 | 0.0 | 0.00 | 0.00 | 0.00 | 89 | 1012.3 |
| 20260906022014 | 59 | 267 | 0.0 | 0.0 | 0.00 | 0.00 | 0.00 | 89 | 1012.3 |
| 20260906021515 | 59 | 267 | 0.0 | 0.0 | 0.00 | 0.00 | 0.00 | 89 | 1012.3 |
| 20260906021014 | 60 | 267 | 0.0 | 0.0 | 0.00 | 0.00 | 0.00 | 89 | 1012.3 |
| 20260906020515 | 60 | 268 | 0.0 | 0.0 | 0.00 | 0.00 | 0.00 | 89 | 1012.2 |
| 20260906020016 | 60 | 268 | 0.0 | 0.0 | 0.00 | 0.00 | 0.00 | 88 | 1012.3 |
| 20260906015513 | 60 | 268 | 0.0 | 0.0 | 0.00 | 0.00 | 0.00 | 88 | 1012.4 |
| 20260906015013 | 60 | 268 | 0.0 | 0.0 | 0.00 | 0.00 | 0.00 | 88 | 1012.4 |
| 20260906014520 | 60 | 268 | 0.0 | 0.0 | 0.00 | 0.00 | 0.00 | 88 | 1012.3 |
| 20260906014012 | 60 | 268 | 0.0 | 0.0 | 0.00 | 0.00 | 0.00 | 88 | 1012.3 |
| 20260906013512 | 61 | 268 | 0.0 | 0.0 | 0.00 | 0.00 | 0.00 | 88 | 1012.2 |
| 20260906013012 | 61 | 275 | 0.0 | 0.0 | 0.00 | 0.00 | 0.00 | 88 | 1012.2 |
| 20260906012517 | 61 | 287 | 0.0 | 0.0 | 0.00 | 0.00 | 0.00 | 88 | 1012.2 |
| 20260906012011 | 61 | 288 | 0.0 | 0.0 | 0.00 | 0.00 | 0.00 | 88 | 1012.2 |
| 20260906011511 | 60 | 227 | 0.0 | 0.0 | 0.00 | 0.00 | 0.00 | 88 | 1012.3 |
| 20260906011015 | 60 | 227 | 0.0 | 0.0 | 0.00 | 0.00 | 0.00 | 88 | 1012.3 |
| 20260906010510 | 60 | 223 | 0.0 | 0.0 | 0.00 | 0.00 | 0.00 | 88 | 1012.2 |
| 20260906010011 | 60 | 222 | 0.0 | 0.0 | 0.00 | 0.00 | 0.00 | 88 | 1012.1 |
| 20260906005510 | 61 | 222 | 0.0 | 0.0 | 0.00 | 0.00 | 0.00 | 88 | 1012.2 |
| 20260906005010 | 61 | 222 | 0.0 | 0.9 | 0.00 | 0.00 | 0.00 | 87 | 1012.1 |
| 20260906004510 | 61 | 220 | 0.0 | 0.0 | 0.00 | 0.00 | 0.00 | 87 | 1012.0 |
| 20260906004013 | 61 | 220 | 0.0 | 0.0 | 0.00 | 0.00 | 0.00 | 87 | 1011.9 |
| 20260906003510 | 61 | 220 | 0.0 | 0.0 | 0.00 | 0.00 | 0.00 | 87 | 1011.7 |
| 20260906003010 | 61 | 220 | 0.0 | 0.0 | 0.00 | 0.00 | 0.00 | 87 | 1011.8 |
| 20260906002510 | 61 | 220 | 0.0 | 0.0 | 0.00 | 0.00 | 0.00 | 87 | 1011.9 |
| 20260906002009 | 61 | 220 | 0.0 | 0.0 | 0.00 | 0.00 | 0.00 | 86 | 1012.0 |
| 20260906001509 | 61 | 220 | 0.0 | 0.0 | 0.00 | 0.00 | 0.00 | 86 | 1012.1 |
| 20260906001008 | 61 | 220 | 0.0 | 0.0 | 0.00 | 0.00 | 0.00 | 86 | 1012.1 |
| 20260906000507 | 61 | 220 | 0.0 | 0.0 | 0.00 | 0.00 | 0.00 | 86 | 1011.9 |
| 20260906000008 | 62 | 220 | 0.0 | 0.0 | 0.00 | 0.00 | 0.00 | 85 | 1011.9 |
| 20260905235507 | 62 | 218 | 0.0 | 0.0 | 0.00 | 0.00 | 0.00 | 85 | 1012.0 |
| 20260905235009 | 62 | 220 | 0.0 | 0.0 | 0.00 | 0.00 | 0.00 | 84 | 1011.9 |
| 20260905234506 | 62 | 360 | 0.0 | 0.0 | 0.00 | 0.00 | 0.00 | 84 | 1011.8 |
| 20260905234007 | 62 | 220 | 0.0 | 0.0 | 0.00 | 0.00 | 0.00 | 84 | 1011.7 |
| 20260905233507 | 63 | 360 | 0.0 | 0.0 | 0.00 | 0.00 | 0.00 | 83 | 1011.7 |
| 20260905233010 | 63 | 360 | 0.0 | 0.0 | 0.00 | 0.00 | 0.00 | 82 | 1011.8 |
| 20260905232506 | 63 | 360 | 0.0 | 1.7 | 0.00 | 0.00 | 0.00 | 82 | 1011.7 |
| 20260905232006 | 64 | 220 | 0.0 | 1.7 | 0.00 | 0.00 | 0.00 | 81 | 1011.7 |
| 20260905231512 | 64 | 309 | 0.0 | 0.0 | 0.00 | 0.00 | 0.00 | 80 | 1011.8 |
| 20260905231006 | 64 | 309 | 0.0 | 0.0 | 0.00 | 0.00 | 0.00 | 80 | 1011.8 |
| 20260905230506 | 64 | 309 | 0.0 | 0.0 | 0.00 | 0.00 | 0.00 | 80 | 1011.8 |
| 20260905230006 | 64 | 309 | 0.0 | 1.7 | 0.00 | 0.00 | 0.00 | 79 | 1011.8 |
| 20260905225505 | 65 | 309 | 0.0 | 1.7 | 0.00 | 0.00 | 0.00 | 79 | 1011.8 |
| 20260905225005 | 64 | 309 | 0.0 | 1.7 | 0.00 | 0.00 | 0.00 | 78 | 1011.9 |
| 20260905224505 | 64 | 309 | 0.0 | 2.6 | 0.00 | 0.00 | 0.00 | 78 | 1011.9 |
| 20260905224007 | 65 | 309 | 0.9 | 2.6 | 0.00 | 0.00 | 0.00 | 78 | 1011.9 |
| 20260905223506 | 65 | 309 | 1.7 | 4.3 | 0.00 | 0.00 | 0.00 | 77 | 1011.8 |
| 20260905223004 | 65 | 317 | 0.0 | 4.3 | 0.00 | 0.00 | 0.00 | 77 | 1011.8 |
| 20260905222506 | 65 | 301 | 1.7 | 4.3 | 0.00 | 0.00 | 0.00 | 76 | 1011.7 |
| 20260905222003 | 65 | 290 | 1.7 | 3.5 | 0.00 | 0.00 | 0.00 | 78 | 1011.6 |
| 20260905221503 | 65 | 292 | 1.7 | 3.5 | 0.00 | 0.00 | 0.00 | 78 | 1011.6 |
| 20260905221002 | 65 | 262 | 0.0 | 2.6 | 0.00 | 0.00 | 0.00 | 79 | 1011.4 |
| 20260905220506 | 65 | 303 | 0.0 | 2.6 | 0.00 | 0.00 | 0.00 | 80 | 1011.4 |
| 20260905220003 | 65 | 300 | 0.0 | 4.3 | 0.00 | 0.00 | 0.00 | 79 | 1011.3 |
| 20260905215503 | 65 | 282 | 1.7 | 4.3 | 0.00 | 0.00 | 0.00 | 78 | 1011.3 |
| 20260905215002 | 65 | 285 | 1.7 | 3.5 | 0.00 | 0.00 | 0.00 | 78 | 1011.4 |
| 20260905214503 | 65 | 273 | 1.7 | 4.3 | 0.00 | 0.00 | 0.00 | 79 | 1011.3 |
| 20260905214002 | 65 | 283 | 1.7 | 4.3 | 0.00 | 0.00 | 0.00 | 78 | 1011.2 |
| 20260905213502 | 65 | 305 | 2.6 | 4.3 | 0.00 | 0.00 | 0.00 | 77 | 1011.1 |
| 20260905213002 | 65 | 324 | 1.7 | 7.0 | 0.00 | 0.00 | 0.00 | 77 | 1011.1 |
| 20260905212502 | 66 | 295 | 2.6 | 7.0 | 0.00 | 0.00 | 0.00 | 76 | 1011.1 |
| 20260905212001 | 66 | 292 | 3.5 | 7.8 | 0.00 | 0.00 | 0.00 | 75 | 1011.1 |
| 20260905211501 | 66 | 273 | 2.6 | 7.8 | 0.00 | 0.00 | 0.00 | 74 | 1011.1 |
| 20260905211002 | 66 | 309 | 2.6 | 7.8 | 0.00 | 0.00 | 0.00 | 73 | 1011.0 |
| 20260905210503 | 66 | 302 | 2.6 | 7.0 | 0.00 | 0.00 | 0.00 | 72 | 1011.1 |
| 20260905210001 | 67 | 286 | 2.6 | 7.0 | 0.00 | 0.00 | 0.00 | 73 | 1011.1 |
| 20260905205501 | 67 | 288 | 1.7 | 5.2 | 0.00 | 0.00 | 0.00 | 73 | 1010.9 |
| 20260905205001 | 67 | 304 | 1.7 | 4.3 | 0.00 | 0.00 | 0.00 | 74 | 1011.0 |
| 20260905204502 | 67 | 311 | 1.7 | 4.3 | 0.00 | 0.00 | 0.00 | 75 | 1010.9 |
| 20260905204104 | 67 | 307 | 1.7 | 4.3 | 0.00 | 0.00 | 0.00 | 75 | 1011.0 |
| 20260905203600 | 67 | 309 | 2.6 | 3.5 | 0.00 | 0.00 | 0.00 | 75 | 1011.0 |
| 20260905203102 | 67 | 306 | 0.0 | 3.5 | 0.00 | 0.00 | 0.00 | 74 | 1011.0 |
| 20260905202600 | 67 | 306 | 0.9 | 4.3 | 0.00 | 0.00 | 0.00 | 74 | 1011.0 |
| 20260905202059 | 67 | 306 | 2.6 | 4.3 | 0.00 | 0.00 | 0.00 | 72 | 1011.1 |
| 20260905201600 | 68 | 306 | 1.7 | 4.3 | 0.00 | 0.00 | 0.00 | 72 | 1011.0 |
| 20260905201059 | 68 | 309 | 1.7 | 6.1 | 0.00 | 0.00 | 0.00 | 71 | 1010.9 |
| 20260905200559 | 67 | 309 | 1.7 | 4.3 | 0.00 | 0.00 | 0.00 | 71 | 1010.9 |
| 20260905200100 | 67 | 303 | 0.9 | 3.5 | 0.00 | 0.00 | 0.00 | 71 | 1010.8 |
| 20260905195558 | 67 | 315 | 0.9 | 6.1 | 0.00 | 0.00 | 0.00 | 72 | 1010.8 |
| 20260905195100 | 66 | 302 | 2.6 | 6.1 | 0.00 | 0.00 | 0.00 | 71 | 1010.9 |
| 20260905194558 | 66 | 313 | 1.7 | 4.3 | 0.00 | 0.00 | 0.00 | 72 | 1010.8 |
| 20260905194057 | 66 | 302 | 2.6 | 4.3 | 0.00 | 0.00 | 0.00 | 72 | 1010.8 |
| 20260905193557 | 66 | 305 | 1.7 | 3.5 | 0.00 | 0.00 | 0.00 | 73 | 1010.8 |
| 20260905193057 | 66 | 302 | 0.9 | 3.5 | 0.00 | 0.00 | 0.00 | 71 | 1010.8 |
| 20260905192557 | 66 | 314 | 0.0 | 3.5 | 0.00 | 0.00 | 0.00 | 72 | 1010.8 |
| 20260905192100 | 66 | 314 | 0.9 | 3.5 | 0.00 | 0.00 | 0.00 | 71 | 1010.8 |
| 20260905191557 | 66 | 298 | 0.0 | 7.8 | 0.00 | 0.00 | 0.00 | 72 | 1010.9 |
| 20260905191057 | 67 | 301 | 2.6 | 7.8 | 0.00 | 0.00 | 0.00 | 69 | 1010.8 |
| 20260905190556 | 67 | 333 | 4.3 | 7.8 | 0.00 | 0.00 | 0.00 | 69 | 1010.9 |
| 20260905185558 | 68 | 292 | 3.5 | 5.2 | 0.00 | 0.00 | 0.00 | 66 | 1010.7 |
| 20260905185056 | 68 | 314 | 2.6 | 5.2 | 0.00 | 0.00 | 0.00 | 64 | 1010.7 |
| 20260905184601 | 68 | 309 | 1.7 | 4.3 | 0.00 | 0.00 | 0.00 | 64 | 1010.7 |
| 20260905184054 | 68 | 306 | 1.7 | 4.3 | 0.00 | 0.00 | 0.00 | 62 | 1010.8 |
| 20260905183555 | 68 | 333 | 1.7 | 5.2 | 0.00 | 0.00 | 0.00 | 64 | 1010.8 |
| 20260905183117 | 68 | 322 | 3.5 | 7.0 | 0.00 | 0.00 | 0.00 | 64 | 1010.8 |
| 20260905182554 | 68 | 322 | 2.6 | 7.0 | 0.00 | 0.00 | 0.00 | 64 | 1010.7 |
| 20260905182054 | 68 | 333 | 2.6 | 5.2 | 0.00 | 0.00 | 0.00 | 66 | 1010.8 |
| 20260905181559 | 68 | 293 | 0.0 | 7.8 | 0.00 | 0.00 | 0.00 | 62 | 1010.8 |
| 20260905181056 | 68 | 302 | 4.3 | 7.8 | 0.00 | 0.00 | 0.00 | 61 | 1010.8 |
| 20260905180553 | 68 | 302 | 2.6 | 5.2 | 0.00 | 0.00 | 0.00 | 63 | 1010.8 |
| 20260905180052 | 68 | 325 | 2.6 | 7.0 | 0.00 | 0.00 | 0.00 | 63 | 1010.8 |
| 20260905175551 | 68 | 302 | 4.3 | 7.0 | 0.00 | 0.00 | 0.00 | 64 | 1010.8 |
| 20260905175052 | 68 | 315 | 1.7 | 5.2 | 0.00 | 0.00 | 0.00 | 65 | 1010.8 |
| 20260905174551 | 68 | 327 | 1.7 | 7.0 | 0.00 | 0.00 | 0.00 | 64 | 1010.9 |
| 20260905174051 | 68 | 311 | 2.6 | 7.0 | 0.00 | 0.00 | 0.00 | 64 | 1010.9 |
| 20260905173551 | 68 | 297 | 3.5 | 7.8 | 0.00 | 0.00 | 0.00 | 64 | 1010.9 |
| 20260905173051 | 68 | 306 | 3.5 | 8.7 | 0.00 | 0.00 | 0.00 | 62 | 1010.8 |
| 20260905172551 | 69 | 315 | 2.6 | 8.7 | 0.00 | 0.00 | 0.00 | 62 | 1010.9 |
| 20260905172050 | 68 | 240 | 0.0 | 5.2 | 0.00 | 0.00 | 0.00 | 63 | 1010.9 |
| 20260905171550 | 68 | 323 | 2.6 | 7.0 | 0.00 | 0.00 | 0.00 | 65 | 1010.9 |
| 20260905171049 | 68 | 295 | 2.6 | 9.6 | 0.00 | 0.00 | 0.00 | 64 | 1010.9 |
| 20260905170549 | 69 | 300 | 4.3 | 9.6 | 0.00 | 0.00 | 0.00 | 64 | 1011.0 |
| 20260905170049 | 69 | 9 | 2.6 | 7.0 | 0.00 | 0.00 | 0.00 | 64 | 1011.0 |
| 20260905165548 | 68 | 293 | 1.7 | 11.3 | 0.00 | 0.00 | 0.00 | 66 | 1011.0 |
| 20260905165049 | 68 | 306 | 6.1 | 11.3 | 0.00 | 0.00 | 0.00 | 63 | 1011.0 |
| 20260905164547 | 67 | 341 | 1.7 | 8.7 | 0.00 | 0.00 | 0.00 | 66 | 1011.0 |
| 20260905164046 | 67 | 355 | 3.5 | 9.6 | 0.00 | 0.00 | 0.00 | 65 | 1011.1 |